Content
SEND FEEDBACK

Daily
Averages
Monthly
Summary
United States of America

HIGH BRIDGE, WISCONSIN


Home > North America > United States > Wisconsin
Elevation: 986 feet     Latitude: 46 25N     Longitude: 090 37W

WEATHER
 
SELECT A DAY
Number of Records: 179,725;   Date Range: 10/16/98 - 9/20/14
 
SHARE

PRINT THIS DATA

[ ← Previous Day ]
WEATHER ALMANAC - SEPTEMBER 2, 2014
[ Next Day → ]
[ °C ]   °F
Weather ElementAverageHighLow
Temperature63 °F75 °F (1:53 pm)51.1 °F (11:53 pm)
Dewpoint53.1 °F55 °F (8:53 am)50 °F (11:53 pm)
Humidity72.8 %96 % (11:53 pm)44 % (1:53 pm)
Barometer29.84 in29.88 in (7:53 pm)29.78 in (1:53 am)
Wind Speed7.4 mph18.4 mph (7:19 pm)
Wind Gust28.8 mph (7:19 pm)
Weather ElementAverage
Visibility10 mi
Wind DirectionSSW (193.3 °)

Weather ElementTotal
Precipitation---
Heating Degree Days2 (Base 65)
Growing Degree Days13.1 (Base 50)
Averaged from 24 records on September 2, 2014
WEATHER CONDITIONS BREAKOUT
WIND DIRECTION BREAKOUT
WEATHER BY HOUR - SEPTEMBER 2, 2014
[ °C ]   °F
Local TimeTemperatureDewpointHumidityBarometerVisibilityWind DirectionWind SpeedGust SpeedPrecipitationEventsConditions
1:53 AM54.0 °F51.1 °F90 %29.78 in10.0 miSSW (210°)5.8 mphScattered Clouds
2:53 AM55.0 °F52.0 °F89 %29.79 in10.0 miSW (230°)5.8 mphMostly Cloudy
3:53 AM57.0 °F53.1 °F87 %29.80 in10.0 miSW (230°)8.1 mphClear
4:53 AM55.0 °F52.0 °F89 %29.80 in10.0 miWSW (250°)8.1 mphClear
5:53 AM54.0 °F52.0 °F93 %29.81 in10.0 miWSW (250°)5.8 mphClear
6:53 AM55.0 °F52.0 °F89 %29.82 in10.0 miSW (230°)5.8 mphClear
7:53 AM57.9 °F54.0 °F87 %29.84 in10.0 miWSW (240°)5.8 mphClear
8:53 AM61.0 °F55.0 °F81 %29.85 in10.0 miWSW (240°)6.9 mphClear
9:53 AM64.9 °F55.0 °F70 %29.84 in10.0 miWSW (240°)8.1 mphClear
10:53 AM70.0 °F55.0 °F59 %29.85 inWSW (250°)6.9 mphClear
11:53 AM73.0 °F55.0 °F53 %29.84 in10.0 miSW (230°)9.2 mphClear
12:53 PM73.9 °F52.0 °F46 %29.84 in10.0 miNorthClear
1:53 PM75.0 °F52.0 °F44 %29.84 in10.0 miSW (230°)8.1 mphClear
2:53 PM73.9 °F54.0 °F50 %29.84 in10.0 miSSW (210°)10.4 mph18.4 mphPartly Cloudy
3:53 PM75.0 °F53.1 °F46 %29.83 in10.0 miSW (220°)9.2 mph19.6 mphClear
4:53 PM73.9 °F53.1 °F48 %29.82 in10.0 miSW (220°)9.2 mph18.4 mphPartly Cloudy
5:53 PM72.0 °F53.1 °F51 %29.83 in10.0 miSSW (210°)8.1 mphClear
6:53 PM66.9 °F54.0 °F63 %29.84 in10.0 miSW (220°)5.8 mphClear
7:19 PM62.1 °F52.0 °F70 %29.87 in10.0 miNorth (350°)18.4 mph28.8 mphThunderstormOvercast
7:34 PM60.1 °F53.1 °F78 %29.87 in10.0 miNorth (10°)10.4 mphOvercast
7:53 PM59.0 °F55.0 °F87 %29.88 in10.0 miNE (50°)5.8 mphOvercast
8:53 PM57.0 °F54.0 °F89 %29.88 in10.0 miSSE (150°)4.6 mphClear
10:53 PM55.0 °F53.1 °F93 %29.86 in10.0 miSouth (170°)3.5 mphClear
11:53 PM51.1 °F50.0 °F96 %29.85 in10.0 miCalmClear
Hourly data recorded from KASX, located miles away from High Bridge, Wisconsin







STORIES FROM OUR PARTNERS